| time (UTC) | temp F | wind direction | speed knots | gust knots | rain 1hr in | rain 24hr in | rain mn in | humidity % | barometer mb |
| 20260504204556 | 38 | 304 | 4.3 | 0.0 | 0.00 | 0.00 | 0.18 | 84 | 997.1 |
| 20260504203054 | 38 | 259 | 1.7 | 0.0 | 0.00 | 0.00 | 0.18 | 82 | 997.0 |
| 20260504201557 | 38 | 303 | 3.5 | 0.0 | 0.00 | 0.00 | 0.18 | 81 | 996.8 |
| 20260504194553 | 38 | 252 | 2.6 | 0.0 | 0.00 | 0.00 | 0.18 | 81 | 996.6 |
| 20260504193053 | 38 | 333 | 2.6 | 0.0 | 0.00 | 0.00 | 0.18 | 80 | 996.7 |
| 20260504191607 | 38 | 291 | 3.5 | 0.0 | 0.00 | 0.00 | 0.18 | 80 | 996.5 |
| 20260504190051 | 38 | 310 | 3.5 | 0.0 | 0.00 | 0.00 | 0.18 | 79 | 996.6 |
| 20260504184551 | 38 | 360 | 4.3 | 0.0 | 0.00 | 0.00 | 0.18 | 79 | 996.6 |
| 20260504183050 | 38 | 301 | 5.2 | 0.0 | 0.00 | 0.00 | 0.18 | 79 | 996.6 |
| 20260504181552 | 39 | 305 | 3.5 | 0.0 | 0.00 | 0.00 | 0.18 | 79 | 996.4 |
| 20260504180050 | 40 | 309 | 4.3 | 0.0 | 0.00 | 0.00 | 0.18 | 78 | 996.4 |
| 20260504174555 | 41 | 300 | 3.5 | 0.0 | 0.00 | 0.00 | 0.18 | 77 | 996.1 |
| 20260504173049 | 40 | 285 | 4.3 | 0.0 | 0.00 | 0.00 | 0.18 | 76 | 996.1 |
| 20260504171549 | 41 | 280 | 4.3 | 0.0 | 0.00 | 0.00 | 0.18 | 74 | 996.1 |
| 20260504081524 | 36 | 76 | 3.5 | 0.0 | 0.00 | 0.00 | 0.10 | 92 | 994.9 |
| 20260504050006 | 36 | 28 | 2.6 | 0.0 | 0.00 | 0.00 | 0.06 | 92 | 995.2 |
| 20260504044510 | 36 | 47 | 1.7 | 0.0 | 0.00 | 0.00 | 0.06 | 92 | 995.4 |
| 20260504043007 | 36 | 46 | 2.6 | 0.0 | 0.00 | 0.00 | 0.06 | 92 | 995.3 |
| 20260504041501 | 35 | 38 | 1.7 | 0.0 | 0.00 | 0.00 | 0.06 | 92 | 995.5 |
| 20260504040100 | 35 | 40 | 1.7 | 0.0 | 0.00 | 0.00 | 0.06 | 92 | 995.7 |
| 20260504034557 | 35 | 43 | 1.7 | 0.0 | 0.00 | 0.00 | 0.06 | 91 | 996.0 |
| 20260504033109 | 35 | 64 | 0.9 | 0.0 | 0.00 | 0.00 | 0.05 | 91 | 996.1 |
| 20260504031558 | 35 | 63 | 0.9 | 0.0 | 0.00 | 0.00 | 0.05 | 91 | 996.4 |
| 20260504030109 | 35 | 63 | 0.0 | 0.0 | 0.00 | 0.00 | 0.04 | 91 | 996.8 |
| 20260504024552 | 35 | 63 | 1.7 | 0.0 | 0.00 | 0.00 | 0.04 | 91 | 996.8 |
| 20260504023051 | 35 | 66 | 0.9 | 0.0 | 0.00 | 0.00 | 0.04 | 91 | 996.9 |
| 20260504021551 | 35 | 74 | 0.9 | 0.0 | 0.00 | 0.00 | 0.03 | 90 | 997.1 |
| 20260504020054 | 35 | 75 | 1.7 | 0.0 | 0.00 | 0.00 | 0.03 | 90 | 997.1 |
| 20260504014547 | 35 | 82 | 2.6 | 0.0 | 0.00 | 0.00 | 0.03 | 89 | 997.3 |
| 20260504013050 | 36 | 342 | 0.0 | 0.0 | 0.00 | 0.00 | 0.02 | 88 | 997.5 |
| 20260504011540 | 36 | 311 | 0.0 | 0.0 | 0.00 | 0.00 | 0.02 | 87 | 997.5 |
| 20260504010050 | 37 | 311 | 0.0 | 0.0 | 0.00 | 0.00 | 0.01 | 88 | 997.6 |
| 20260504004544 | 37 | 300 | 0.0 | 0.0 | 0.00 | 0.00 | 0.01 | 87 | 997.8 |
| 20260504003036 | 37 | 300 | 0.0 | 0.0 | 0.00 | 0.00 | 0.00 | 86 | 997.8 |
| 20260504001539 | 37 | 300 | 1.7 | 0.0 | 0.00 | 0.00 | 0.00 | 85 | 997.9 |
| 20260504000032 | 37 | 268 | 2.6 | 0.0 | 0.00 | 0.00 | 0.00 | 84 | 998.1 |
| 20260503234534 | 38 | 292 | 2.6 | 0.0 | 0.00 | 0.00 | 0.00 | 83 | 998.1 |
| 20260503233027 | 38 | 294 | 3.5 | 0.0 | 0.00 | 0.00 | 0.00 | 81 | 998.0 |
| 20260503231525 | 39 | 269 | 1.7 | 0.0 | 0.00 | 0.00 | 0.00 | 79 | 998.1 |
| 20260503230026 | 40 | 302 | 2.6 | 0.0 | 0.00 | 0.00 | 0.00 | 77 | 998.1 |
| 20260503224517 | 41 | 270 | 3.5 | 0.0 | 0.00 | 0.00 | 0.00 | 73 | 998.1 |
| 20260503223015 | 41 | 223 | 3.5 | 0.0 | 0.00 | 0.00 | 0.00 | 69 | 998.1 |
| 20260503221513 | 41 | 198 | 5.2 | 0.0 | 0.00 | 0.00 | 0.00 | 65 | 998.2 |
| 20260503220020 | 41 | 193 | 4.3 | 0.0 | 0.00 | 0.00 | 0.28 | 65 | 998.2 |
| 20260503214520 | 41 | 183 | 0.9 | 0.0 | 0.00 | 0.00 | 0.28 | 65 | 998.1 |
| 20260503213013 | 42 | 147 | 2.6 | 0.0 | 0.00 | 0.00 | 0.28 | 64 | 998.2 |
| 20260503211507 | 41 | 186 | 3.5 | 0.0 | 0.00 | 0.00 | 0.28 | 67 | 998.2 |